GFSSGP_925_temp_333.txt.gz
Temp
25 24 23 25 29 30 30 29 30 28 28 28 28 27 26 26 27 28 21 21 22 21 21 21 21 21 21 21 21 21 21 21 21 21 21 21 21 21 21 21 21 21 21 21 21 21 21 20 20
24 23 24 26 30 31 29 29 29 29 28 27 27 26 26 26 24 23 22 21 22 22 22 22 21 21 21 21 22 21 21 21 21 22 21 21 21 21 21 21 21 21 21 21 21 21 21 21 21
24 24 27 29 30 30 30 29 29 28 27 28 27 26 26 25 23 23 22 21 22 22 22 22 22 22 22 22 22 21 21 21 21 21 21 21 21 21 21 21 21 21 21 21 21 21 21 22 22
25 26 27 30 30 30 30 29 29 29 29 28 28 26 26 25 24 23 22 22 22 22 22 22 22 22 22 21 22 21 21 21 21 22 21 21 21 21 21 21 21 21 21 21 21 21 21 22 22
24 26 29 29 30 30 30 30 29 29 28 28 28 26 25 24 23 22 22 21 22 22 22 22 21 22 22 22 21 22 21 21 21 21 21 21 21 21 21 21 21 21 21 21 21 21 22 23 22
27 26 30 29 30 30 30 30 29 29 28 27 27 27 25 23 23 22 22 22 22 22 22 22 22 22 21 21 21 21 22 21 21 21 21 21 21 21 21 21 21 21 21 22 23 23 23 23 23
28 28 29 30 30 30 30 30 29 29 28 28 28 27 24 24 23 22 21 21 22 22 22 22 22 21 21 21 21 21 21 21 21 21 21 21 21 22 22 21 22 22 22 23 23 23 23 23 23
25 29 29 30 30 30 30 30 30 30 28 29 29 27 25 24 22 22 21 22 22 22 22 22 21 22 22 22 21 21 21 21 22 21 20 21 21 21 22 22 23 23 23 23 24 24 24 24 24
25 30 30 30 30 30 30 30 29 29 29 29 28 28 27 23 22 22 22 21 21 21 22 21 21 21 21 21 21 21 21 21 22 21 21 21 22 22 22 22 23 23 23 23 23 24 24 24 24
28 30 31 31 31 31 30 30 30 29 29 28 26 26 24 23 23 24 23 22 22 22 21 21 21 21 21 22 22 21 21 22 22 21 21 21 22 22 22 23 24 23 23 23 23 23 24 24 23
29 31 30 31 32 32 31 30 30 30 29 29 27 26 25 24 24 24 24 23 22 22 21 21 21 20 21 22 21 22 21 21 21 22 22 23 22 22 22 22 23 22 24 23 23 24 25 24 24
31 30 31 31 32 32 31 31 30 30 31 30 29 27 26 26 25 25 24 23 23 22 22 21 21 21 21 21 21 21 21 21 21 21 23 23 23 24 23 22 23 24 25 24 24 24 25 25 25
30 32 32 32 32 32 31 31 31 30 30 30 28 27 27 27 26 25 25 24 24 23 22 22 20 20 20 20 21 21 21 21 21 22 23 23 23 24 23 23 23 23 24 25 24 25 25 25 25
31 31 31 32 32 32 32 31 31 30 29 28 27 27 27 27 26 26 25 25 24 23 22 22 21 20 20 20 21 21 21 21 23 23 23 24 24 24 24 24 24 25 25 25 25 25 25 26 26
31 32 33 32 32 32 32 31 31 30 29 28 28 28 28 27 26 26 26 25 25 24 23 22 22 21 22 22 22 21 21 22 23 23 24 23 23 23 24 23 24 24 24 24 25 25 25 25 25
31 31 31 32 32 31 33 31 32 30 29 29 28 28 28 28 27 26 26 25 25 24 23 22 22 22 24 24 23 22 23 22 22 22 23 24 24 24 24 23 23 23 24 23 24 23 23 25 24
29 30 30 31 32 32 32 32 32 30 29 29 29 28 28 28 27 27 26 26 25 24 23 22 22 23 23 25 24 24 24 24 24 24 23 24 25 24 24 23 23 24 23 22 22 22 23 23 24
30 30 30 31 30 32 31 32 31 30 30 30 30 29 29 29 29 28 27 26 26 25 24 23 23 23 25 25 25 24 24 25 25 24 24 24 25 25 25 23 24 24 23 22 22 22 23 25 24
29 28 30 31 32 31 32 32 33 30 30 31 30 30 30 30 30 29 28 27 26 25 24 24 24 23 23 22 23 23 24 23 23 25 26 25 25 25 25 25 23 23 23 23 24 24 23 24 23
30 30 31 31 31 30 31 31 32 31 30 31 31 31 30 31 31 30 28 27 26 26 25 24 26 25 24 22 23 23 24 24 24 25 26 26 25 25 24 24 24 23 21 21 21 22 22 22 22
30 31 30 30 31 30 29 31 31 30 30 30 31 31 31 31 31 30 29 28 27 26 25 25 25 26 25 24 23 23 24 24 24 25 25 25 25 25 25 24 23 22 23 21 20 20 21 22 21
31 30 30 30 31 31 29 31 31 30 29 29 29 30 30 31 30 30 30 28 27 26 25 25 25 25 26 24 23 23 24 25 25 24 23 23 23 22 22 22 22 23 21 20 20 20 20 20 21
30 30 30 30 30 29 30 30 33 28 31 30 29 30 30 31 31 31 30 28 27 26 25 24 24 24 24 23 24 23 23 24 22 24 22 22 22 22 24 22 21 21 20 19 19 19 21 21 20
30 30 29 29 28 29 28 29 34 33 30 30 29 29 29 29 29 29 29 26 25 25 24 24 24 23 23 23 24 22 22 22 23 21 19 19 20 20 20 19 19 19 19 19 19 20 20 21 20
30 29 31 31 29 31 27 28 33 31 30 28 28 28 29 28 28 28 27 26 25 24 24 23 24 22 23 24 23 22 21 20 19 19 19 18 18 18 18 18 18 18 18 20 20 20 20 19 20
29 30 31 30 32 33 26 31 35 29 27 26 26 27 26 26 27 27 26 25 26 24 23 24 24 23 24 22 21 20 19 18 18 17 17 18 20 19 19 18 17 18 18 19 19 19 18 19 19
29 29 31 31 27 30 32 31 33 29 30 27 26 26 25 25 25 25 24 23 23 24 23 23 21 22 21 20 20 18 18 20 20 18 17 17 18 18 18 18 18 17 17 18 18 18 18 18 18
31 31 31 30 30 30 32 30 33 34 32 28 27 27 25 23 22 22 23 22 21 21 21 21 21 20 20 20 20 19 19 21 19 19 19 17 17 18 18 17 16 17 17 18 18 18 18 18 18
30 31 29 30 30 31 30 32 32 31 30 28 28 27 25 23 22 21 20 19 18 18 20 19 19 18 18 18 19 20 20 20 20 20 17 16 17 17 16 16 16 16 17 17 17 17 17 17 17
31 31 32 31 31 29 29 30 30 29 28 26 27 26 24 23 20 19 18 18 17 17 18 18 18 18 18 18 18 17 18 18 18 18 16 16 16 15 15 15 15 16 16 16 16 16 16 16 16

GFSSGP_925_temp_336.txt.gz
Temp
24 26 26 29 33 35 34 32 34 32 32 32 32 31 31 30 31 30 26 26 25 25 24 22 21 21 21 21 22 21 21 21 21 22 21 21 21 21 21 21 21 21 21 21 21 21 21 21 21
27 26 28 32 34 34 33 34 33 33 32 32 30 31 30 29 29 28 27 25 25 25 24 23 22 21 21 21 21 21 21 21 21 21 21 21 21 21 21 21 21 21 21 21 21 21 21 21 21
25 26 31 34 35 34 33 33 32 32 31 32 31 31 30 29 28 29 27 25 25 26 25 23 21 21 22 21 21 21 21 21 21 21 22 21 21 21 21 21 21 21 21 21 21 21 21 21 22
28 31 33 35 34 34 34 33 33 32 32 32 32 30 30 28 29 28 26 26 26 26 25 22 22 21 21 21 21 21 21 21 21 21 21 21 21 21 21 21 21 22 21 21 21 21 21 21 22
29 32 34 34 34 34 34 34 33 33 32 31 32 30 28 28 27 27 26 26 26 26 25 23 22 21 21 21 21 21 22 21 21 21 21 21 21 21 21 21 22 21 21 21 21 21 21 21 22
32 33 34 34 33 33 34 34 33 33 32 32 31 31 29 27 27 26 26 26 27 26 26 23 21 22 22 22 21 21 21 21 21 22 21 21 21 21 21 21 21 21 21 21 22 22 22 23 23
33 35 34 35 34 33 33 34 34 33 32 32 33 31 29 28 27 27 26 26 27 26 26 25 24 23 22 22 21 21 21 21 21 21 21 21 21 21 21 21 21 21 21 22 22 22 23 23 23
31 35 34 35 34 33 33 33 33 34 33 33 33 31 29 29 27 26 26 26 26 26 26 26 24 24 24 23 21 22 21 21 21 21 21 21 21 22 22 22 22 22 22 22 22 22 23 23 23
31 35 34 34 34 34 34 33 33 34 32 32 32 33 32 27 27 27 26 26 26 26 26 26 25 25 24 24 22 22 21 21 21 22 21 22 24 23 23 23 23 23 23 23 23 23 23 24 24
34 36 35 35 35 35 34 34 33 33 32 32 31 32 29 28 27 28 28 28 27 26 26 26 26 25 25 25 24 24 24 24 24 23 23 24 25 26 25 24 24 24 24 24 24 24 24 25 27
34 35 35 35 35 35 34 34 35 34 33 33 32 30 30 29 29 29 29 29 28 27 27 26 26 26 26 26 25 25 25 25 24 23 23 24 25 24 25 26 25 25 24 25 25 25 26 26 26
35 35 35 34 35 35 34 35 34 34 34 35 33 31 30 30 30 30 29 29 28 27 27 26 26 25 25 25 25 26 26 25 25 24 22 24 24 24 25 25 25 24 25 25 25 26 25 26 26
35 35 35 35 35 36 35 34 34 34 34 34 33 31 31 32 30 30 30 29 28 27 27 27 25 24 25 24 25 25 25 25 25 24 23 24 25 25 25 25 25 25 26 26 25 26 26 26 27
35 36 36 35 35 35 35 34 34 34 34 33 32 32 32 32 31 30 30 29 28 28 27 26 25 23 23 23 23 24 25 25 25 25 25 23 24 25 25 25 25 25 25 26 26 26 26 27 27
35 36 36 35 35 35 36 34 34 35 34 33 32 32 32 32 31 31 30 29 29 28 27 27 25 24 23 23 22 23 25 25 25 25 24 23 24 24 24 25 25 26 25 24 25 25 26 26 28
36 36 35 35 35 34 35 35 36 35 33 33 33 33 32 32 32 31 30 29 29 28 27 26 26 26 24 23 23 24 25 25 25 25 25 23 23 23 23 25 26 26 25 25 25 26 26 27 28
33 34 34 34 35 35 35 35 36 35 33 34 33 33 33 33 32 31 30 30 29 28 27 26 25 26 25 24 24 24 24 25 26 26 26 25 24 24 24 25 26 24 25 25 25 26 25 27 27
34 34 35 35 36 35 35 35 37 35 35 35 34 34 33 33 33 32 31 30 30 28 27 26 25 26 25 25 24 25 26 26 26 26 26 26 26 24 24 25 25 24 25 26 25 24 25 26 26
35 33 34 36 36 34 35 36 37 37 35 36 35 34 34 34 34 33 31 31 30 29 28 27 26 25 24 25 25 26 26 27 27 26 26 25 25 25 24 25 26 25 24 23 21 21 21 23 25
35 35 36 36 35 35 35 35 36 37 36 36 36 35 35 35 35 34 32 31 30 30 28 27 26 25 24 25 26 27 27 28 28 27 26 25 25 25 24 25 26 25 23 20 21 21 21 21 22
35 34 35 35 35 35 33 36 36 36 36 36 36 36 36 36 35 35 33 32 31 30 29 27 26 26 25 26 25 25 26 26 26 26 26 26 24 24 24 24 23 22 22 22 20 20 20 19 20
36 34 35 35 35 36 33 35 37 36 35 34 35 35 36 36 35 35 34 33 31 31 30 28 26 26 25 25 26 26 27 28 28 28 27 23 21 22 21 21 22 21 21 21 21 20 19 18 19
34 34 34 35 36 35 36 36 37 36 37 36 35 35 35 36 36 35 35 33 32 31 31 28 25 25 26 25 25 26 25 27 27 25 21 20 20 21 22 21 20 22 21 20 21 20 19 19 20
34 34 36 35 36 36 35 35 37 37 36 36 36 35 34 35 35 35 34 34 33 30 30 29 27 25 25 25 24 25 26 26 24 23 20 21 21 20 19 20 20 20 21 20 19 19 19 19 19
34 36 36 35 36 36 35 35 37 37 36 34 33 33 34 34 34 34 34 33 31 28 26 26 25 23 24 24 24 23 23 23 23 20 19 20 20 19 18 19 19 19 19 19 18 18 19 19 20
36 36 35 33 35 36 35 35 37 37 35 33 32 32 31 31 33 33 34 32 30 27 27 26 25 23 22 23 22 22 21 20 18 19 19 19 18 17 18 18 18 18 18 18 18 17 19 19 20
35 35 37 36 37 35 37 37 38 37 37 35 33 32 32 31 31 31 30 29 28 26 26 26 24 22 21 21 20 19 19 19 20 20 19 18 18 18 18 18 18 18 16 17 17 19 18 18 18
35 35 35 36 33 33 36 35 36 36 36 36 35 34 33 30 29 29 29 27 27 26 25 25 23 22 22 19 18 19 19 19 20 20 20 18 17 17 17 17 18 17 17 17 17 17 17 18 19
35 35 35 36 35 34 34 35 37 36 35 35 35 34 33 30 28 28 27 25 23 22 23 24 23 23 21 19 20 21 20 20 19 19 17 16 17 17 17 16 17 17 16 16 16 17 17 17 18
36 36 36 36 34 36 34 34 37 36 36 35 36 32 31 29 25 24 23 23 22 19 20 21 21 20 19 19 19 18 17 17 17 18 17 16 16 17 17 16 16 15 15 16 16 17 18 18 17

GFSSGP_925_temp_339.txt.gz
Temp
26 26 30 32 29 31 34 35 36 35 35 35 34 35 34 33 32 29 29 30 28 28 24 22 22 22 21 21 22 21 21 21 22 22 21 21 21 21 22 21 21 21 21 21 21 21 21 21 21
30 29 30 33 30 31 33 35 35 36 35 35 34 34 34 31 32 31 30 29 28 27 24 23 22 22 21 21 22 22 21 21 21 21 21 22 21 21 21 21 21 21 21 21 21 21 21 21 21
28 29 32 30 28 32 35 36 35 35 35 34 34 34 34 31 32 31 29 28 28 27 26 23 22 21 21 22 21 21 21 22 21 22 22 22 21 21 21 21 21 21 21 21 21 21 21 21 21
31 34 35 29 36 37 37 36 36 35 35 35 35 33 32 32 32 30 29 29 29 29 26 23 21 21 21 21 21 21 21 21 21 22 22 21 21 21 21 21 21 22 21 21 21 21 21 21 21
32 35 33 36 36 37 37 37 36 35 35 35 35 33 31 31 31 29 29 29 29 29 25 23 21 21 21 21 21 22 21 21 21 21 21 21 21 21 21 21 21 21 21 21 21 21 21 22 22
34 35 31 35 36 36 36 37 37 36 36 35 35 32 32 30 30 30 29 30 30 30 27 23 21 21 21 21 21 22 22 21 21 22 21 21 21 21 21 21 21 21 21 21 21 21 21 21 21
34 29 36 36 36 36 36 37 37 36 35 35 35 33 31 31 30 30 29 30 30 30 28 25 24 22 21 21 21 21 21 21 21 21 21 21 21 21 21 21 22 21 21 21 21 21 21 21 21
34 36 36 37 35 35 36 37 36 37 35 36 36 34 31 32 30 30 29 30 30 30 29 28 26 24 24 23 21 21 21 21 21 21 21 21 21 21 22 23 23 22 22 22 22 22 22 22 23
35 30 32 36 26 36 36 36 37 37 35 35 35 36 34 31 31 30 30 30 30 30 29 29 26 26 26 25 22 21 21 21 21 21 21 22 24 23 24 23 24 23 23 23 23 23 24 25 25
27 30 36 38 37 37 37 37 36 36 35 35 35 35 32 31 31 31 31 31 30 30 30 30 29 28 26 27 23 24 24 24 24 24 23 24 27 27 27 25 24 24 25 25 25 25 25 26 26
32 36 38 37 38 38 37 37 38 36 36 36 34 33 33 32 32 32 32 31 31 30 30 30 30 28 28 29 26 27 27 27 26 25 24 26 27 26 27 27 26 26 25 27 26 26 27 28 28
33 38 37 37 38 38 37 37 37 37 37 37 36 34 34 33 33 33 33 32 31 30 30 29 30 29 29 29 28 28 28 28 27 26 24 26 26 26 27 28 27 26 27 27 27 28 27 28 28
36 38 38 38 38 38 37 37 37 37 37 37 36 34 34 34 34 33 33 32 32 30 30 29 29 27 28 27 28 28 29 27 27 26 24 26 26 27 26 26 27 27 28 28 28 28 27 27 28
38 38 38 37 38 38 37 37 36 37 37 36 35 35 35 35 34 33 33 32 32 31 30 29 28 26 27 26 26 27 28 27 27 27 26 24 26 26 27 26 26 28 28 28 27 27 27 28 28
39 37 38 38 38 37 38 36 37 37 37 36 35 35 35 35 34 34 33 32 32 31 30 30 28 26 26 25 25 26 27 27 27 27 27 25 25 26 25 27 28 28 28 26 26 26 28 28 29
38 38 29 36 38 38 37 28 36 38 37 36 35 35 35 35 34 34 33 32 31 31 30 29 28 27 26 25 25 26 27 28 28 28 27 25 25 25 26 27 28 28 27 28 28 28 28 27 28
36 26 27 36 38 38 37 36 37 39 37 37 36 35 35 35 35 34 33 32 32 31 30 29 28 28 27 25 25 26 27 27 28 28 28 26 26 26 25 27 28 26 27 28 28 28 27 28 29
28 32 32 36 27 38 37 36 38 37 38 37 36 36 36 35 35 34 33 33 32 30 29 28 28 28 27 26 25 26 27 27 28 28 29 28 27 26 26 27 27 26 28 28 25 25 24 25 25
38 37 35 37 38 38 38 37 38 38 39 38 37 36 36 36 37 35 34 33 32 31 29 28 27 27 27 26 26 27 28 28 29 29 28 28 26 27 26 27 27 27 27 24 23 24 24 25 22
37 32 34 38 38 38 38 38 39 39 39 39 39 38 37 37 37 36 34 33 33 32 30 28 28 27 26 27 27 28 29 29 29 29 28 27 27 27 27 26 27 25 23 22 22 21 22 22 20
36 37 37 37 39 39 37 28 39 39 40 39 39 39 39 38 37 36 36 34 33 32 31 29 28 27 26 27 27 28 28 29 29 29 29 28 26 26 26 26 25 23 24 22 22 21 20 19 19
33 38 38 38 38 34 38 30 26 32 39 38 38 38 39 39 38 37 36 35 34 33 32 30 28 27 26 26 28 28 28 29 29 29 28 24 23 23 24 24 23 23 23 22 21 20 21 20 19
38 38 38 38 39 36 36 39 36 33 38 39 39 39 39 39 39 38 36 34 34 34 33 31 29 28 27 26 28 27 27 28 29 26 24 22 22 22 21 23 22 22 21 21 20 20 21 21 20
38 38 39 40 40 37 38 38 38 38 38 38 38 38 38 37 38 39 38 35 34 33 32 32 30 27 26 26 25 27 26 26 27 26 24 25 25 22 21 21 21 21 21 20 19 21 21 20 19
39 39 37 38 39 39 39 38 39 39 38 37 36 36 36 36 37 37 37 37 34 33 32 30 29 26 25 26 25 25 25 25 25 23 24 25 23 23 21 20 19 19 19 20 20 20 20 20 19
38 38 38 36 38 39 39 37 39 40 39 38 38 36 36 35 36 37 37 36 36 32 30 28 26 25 24 23 22 23 23 23 22 21 20 20 20 19 19 18 18 18 19 19 19 19 19 19 20
38 38 40 38 39 39 40 40 41 40 40 39 38 38 38 35 35 36 36 34 33 32 30 27 25 23 22 22 21 22 21 21 20 20 21 21 18 18 18 18 18 18 18 18 18 18 18 19 20
38 39 37 39 36 36 38 38 39 38 38 38 37 38 37 36 33 33 33 32 31 31 29 28 27 24 23 21 21 20 19 20 20 19 20 20 18 18 17 17 18 18 17 17 17 18 18 19 19
39 38 38 39 38 37 37 38 40 38 37 37 37 38 36 36 33 32 32 30 28 28 27 27 26 24 22 20 20 20 20 22 21 20 18 19 18 17 17 16 16 16 16 17 17 18 17 18 19
39 38 39 38 37 38 38 37 40 38 38 38 37 36 35 34 32 30 29 28 26 25 24 26 26 24 22 20 19 19 21 22 20 17 17 18 17 17 16 16 16 16 16 16 17 17 18 18 18

GFSSGP_925_temp_342.txt.gz
Temp
27 26 27 24 27 29 34 35 37 36 35 36 36 24 33 32 29 26 29 29 27 25 22 22 22 22 21 22 22 22 22 22 22 22 21 21 21 22 21 21 21 21 21 21 21 21 21 21 21
28 30 25 22 26 32 33 37 35 35 36 35 35 34 33 31 29 31 31 29 27 25 23 22 22 22 21 21 22 21 22 22 21 21 21 22 22 22 21 21 21 21 21 21 21 21 21 21 21
27 29 21 23 30 32 33 36 35 35 36 36 35 35 33 31 32 31 30 29 27 24 24 23 22 22 22 21 22 21 21 21 21 21 22 22 21 21 21 21 21 21 21 21 21 21 22 21 21
31 32 27 27 34 37 36 37 36 35 36 36 36 32 33 33 32 30 29 29 28 25 24 23 22 21 21 21 21 21 21 22 21 21 22 22 21 21 21 21 21 21 21 21 21 21 21 22 22
32 32 29 33 37 37 37 38 38 36 36 36 35 32 32 33 31 30 30 30 27 25 23 22 22 21 21 21 21 21 21 21 21 21 21 21 21 21 21 21 21 21 21 21 21 21 21 22 22
29 29 31 36 37 37 37 38 38 37 36 36 34 32 32 32 31 30 31 31 28 26 24 22 21 22 21 21 21 21 21 21 22 21 21 21 21 21 21 21 21 22 21 22 22 22 22 22 22
22 26 32 37 36 36 37 37 38 37 36 36 35 32 32 32 31 31 31 31 29 27 25 23 22 21 21 21 21 21 21 21 21 21 21 21 21 21 21 21 21 22 22 22 22 22 22 22 22
25 24 34 34 31 35 37 38 38 37 36 37 37 32 31 32 31 31 31 32 31 29 27 25 23 23 22 22 21 21 21 21 21 21 21 21 21 21 22 22 23 23 23 23 23 23 23 24 23
26 28 27 32 31 36 38 37 38 38 36 37 36 35 34 32 31 31 31 32 31 29 28 27 25 24 24 23 21 21 21 21 21 21 21 22 22 23 24 23 24 24 24 24 25 25 25 25 24
23 27 34 37 32 35 38 38 37 36 36 36 35 35 33 32 32 32 32 32 31 31 30 28 27 26 25 25 23 22 22 22 22 23 24 23 25 25 24 25 25 25 25 25 25 26 26 25 24
25 28 38 39 39 39 38 38 36 34 30 36 34 34 33 33 32 32 32 32 31 31 31 30 28 27 27 26 25 24 24 24 24 24 24 24 26 27 26 26 26 26 26 26 26 26 27 27 21
31 35 39 38 39 39 37 39 37 36 37 38 36 34 34 33 33 33 33 33 32 31 31 31 28 28 28 27 27 27 26 26 25 25 25 25 27 27 27 27 27 26 27 27 27 28 28 28 23
33 38 39 39 39 39 39 38 38 37 38 37 36 35 34 34 34 34 33 33 32 31 31 31 30 29 29 28 28 28 28 27 27 26 25 25 26 27 27 27 27 27 28 28 28 28 28 27 28
35 39 38 38 39 39 38 38 37 37 38 37 35 35 35 35 35 34 34 33 33 31 31 31 29 28 28 28 28 27 28 28 28 27 26 25 26 27 27 26 27 27 28 28 28 27 27 27 27
35 32 36 39 39 38 36 34 31 32 38 36 35 35 35 35 35 35 34 33 33 32 31 30 29 27 27 27 27 27 27 27 27 28 26 26 26 26 26 27 27 28 28 27 27 27 27 27 27
28 28 27 33 35 33 38 27 31 31 36 36 36 36 36 36 35 35 34 33 32 32 31 30 29 27 26 26 26 26 27 28 27 28 27 25 26 26 26 26 27 28 28 28 28 27 27 27 27
26 26 26 30 31 32 35 29 30 26 30 36 36 36 36 36 36 35 34 33 32 32 31 30 29 27 26 26 25 25 26 27 28 28 27 26 25 26 26 27 27 27 27 27 27 25 26 25 25
27 29 30 30 30 32 34 36 30 28 24 28 37 36 36 36 36 35 34 34 33 31 30 29 29 28 27 25 25 25 27 27 28 28 28 27 26 26 26 26 27 27 27 26 26 26 26 25 24
34 34 33 35 34 34 36 38 38 31 28 28 37 36 36 36 37 36 34 34 33 31 30 29 28 28 27 26 25 26 27 27 28 29 29 27 27 27 26 26 27 27 24 24 24 25 25 24 23
36 35 34 37 39 36 37 33 34 34 36 36 38 37 37 37 37 37 35 34 33 31 29 28 28 27 27 26 26 27 27 28 28 29 29 28 27 27 26 26 27 26 25 25 24 23 23 22 21
38 37 38 38 40 38 38 29 30 30 34 40 40 38 37 38 37 36 35 34 34 32 29 28 28 27 27 26 26 27 28 29 29 29 29 28 27 27 27 26 25 23 23 23 22 22 22 22 19
37 39 39 39 37 32 36 28 27 28 32 39 39 39 39 36 35 32 36 35 34 33 30 28 28 27 26 27 27 27 27 28 29 29 27 26 25 26 26 26 24 24 23 23 22 22 21 21 20
39 40 39 39 40 39 39 36 34 33 37 39 39 39 39 39 37 35 33 35 35 34 31 28 27 27 26 26 27 28 28 28 28 27 26 25 24 25 25 24 23 23 23 22 22 20 20 20 20
40 39 40 40 40 36 39 38 36 37 38 38 38 38 37 37 38 38 35 36 34 33 30 30 27 27 26 26 27 27 27 28 27 26 25 24 23 23 22 22 22 22 21 21 20 20 20 20 20
39 40 36 37 37 36 40 40 38 38 38 38 37 37 37 36 37 38 33 34 32 34 30 26 28 27 26 26 26 26 25 25 25 24 23 22 22 21 21 21 21 20 20 20 19 19 19 19 20
39 39 38 36 37 38 41 38 39 40 39 39 39 39 38 37 37 37 38 33 33 31 27 28 27 26 26 26 23 22 23 20 20 20 19 20 20 19 18 19 19 19 18 18 18 19 19 19 19
39 38 40 38 40 39 40 40 40 40 40 39 39 39 38 37 36 35 36 35 26 29 29 26 24 24 25 24 22 21 21 21 20 19 21 21 20 19 18 18 19 19 18 18 19 19 19 19 19
39 40 38 39 36 36 38 38 38 38 38 38 38 38 37 37 35 35 35 34 33 32 29 27 25 24 24 22 22 20 20 21 21 21 20 22 21 18 18 17 18 18 18 18 18 17 18 18 19
39 39 39 40 39 37 37 39 40 38 38 38 38 38 36 36 35 34 34 33 31 30 29 27 26 25 23 22 20 20 20 21 22 20 18 19 17 18 18 17 17 17 18 17 17 18 18 19 19
41 39 39 37 37 38 38 38 41 39 39 39 38 36 35 35 32 31 31 30 29 27 26 25 25 25 23 22 20 19 20 22 19 19 21 20 18 18 17 17 17 17 17 17 17 18 18 18 19

GFSSGP_925_temp_345.txt.gz
Temp
28 25 25 22 24 24 29 32 34 33 32 30 29 28 28 27 29 24 26 25 23 22 22 22 22 22 21 22 22 22 22 22 22 22 22 21 21 22 21 21 21 21 21 21 21 21 21 21 21
27 25 24 21 24 26 27 33 32 33 33 28 27 27 28 26 29 28 25 24 24 22 22 22 22 22 21 22 22 22 22 22 22 22 21 22 22 22 21 21 22 21 21 21 21 21 21 21 21
25 26 23 24 25 27 30 32 32 34 34 34 29 29 31 28 29 28 25 25 24 23 23 23 22 22 21 22 22 22 22 22 22 22 22 21 22 21 22 21 21 21 21 21 21 21 21 22 22
27 23 23 23 28 31 33 33 34 34 35 33 30 30 31 31 29 27 25 25 23 23 24 23 22 21 21 21 22 22 22 22 22 21 21 22 22 21 21 21 21 21 21 21 21 21 22 22 23
28 21 24 28 32 34 34 35 35 34 33 32 31 29 28 29 29 27 26 25 23 23 24 23 22 22 21 21 21 22 22 22 21 21 22 22 22 21 21 21 21 21 21 21 21 22 22 22 23
23 23 28 29 35 36 35 36 36 35 33 32 31 29 28 29 29 28 25 24 24 23 22 23 22 22 22 22 21 21 21 21 21 21 21 21 21 21 21 21 21 22 22 22 22 22 22 22 22
23 22 25 31 32 34 36 37 36 34 33 32 32 28 27 29 30 27 26 25 24 23 22 23 22 22 21 21 21 21 21 21 21 22 21 21 21 21 21 22 22 23 23 23 24 23 23 23 23
23 23 26 30 32 34 36 37 37 35 34 34 32 28 27 29 30 30 27 25 24 23 23 23 22 21 21 21 21 21 22 21 21 21 22 21 22 21 22 23 23 24 24 24 24 25 25 24 22
25 24 25 32 33 34 37 35 36 36 35 35 34 31 30 31 31 31 28 26 24 23 24 24 24 23 22 22 22 22 22 22 22 22 22 21 22 23 23 24 24 25 25 25 25 25 25 22 23
25 26 30 35 34 32 37 35 35 35 34 33 32 32 31 31 31 30 30 27 26 25 24 24 24 24 22 23 23 22 22 23 22 23 23 23 23 24 24 24 25 25 26 26 26 26 23 23 24
25 28 32 35 37 36 37 36 36 32 32 32 31 31 31 30 30 30 30 31 29 26 25 25 25 24 24 23 24 24 23 24 23 23 24 24 23 23 24 24 25 26 25 26 26 27 24 24 25
27 31 32 38 37 37 36 36 34 33 32 33 32 31 31 30 29 30 30 31 31 28 27 26 26 25 24 25 25 24 24 24 24 24 24 24 24 25 25 25 26 27 27 27 27 26 26 25 25
30 33 37 38 39 37 36 35 36 35 35 34 33 32 31 30 30 31 32 31 31 31 29 27 27 26 26 26 26 24 24 24 25 25 25 25 25 26 26 26 26 26 27 27 27 27 25 23 24
35 33 33 37 35 38 36 32 34 32 34 33 33 31 31 31 31 31 32 31 31 31 31 28 27 27 27 28 26 26 25 26 25 26 26 25 26 26 27 27 27 27 28 27 28 28 26 25 26
31 30 31 35 33 34 34 30 31 32 31 33 32 32 32 31 32 32 33 32 31 31 31 28 28 28 27 27 27 27 27 27 26 26 27 26 26 26 26 26 27 27 27 27 28 27 26 25 23
29 28 26 32 32 33 33 29 29 29 28 30 33 33 33 31 32 33 33 33 31 31 31 29 29 29 27 27 27 27 27 27 27 26 27 26 26 26 26 26 26 27 27 27 27 26 24 25 25
26 27 27 29 34 32 30 28 30 30 30 29 30 33 33 31 32 32 33 33 32 31 31 29 28 28 27 26 27 27 27 27 27 27 27 27 27 26 25 26 26 27 27 26 26 26 25 26 25
27 29 29 28 31 32 32 27 27 26 27 29 27 26 30 32 31 32 33 33 32 31 30 29 28 27 27 26 26 26 26 27 27 27 27 27 27 27 26 26 26 26 26 26 25 25 25 25 25
28 30 31 32 32 33 32 27 28 27 26 27 27 26 28 28 32 33 33 33 32 31 30 29 28 27 26 26 25 25 25 26 27 27 28 27 27 26 26 26 26 25 26 26 25 25 23 23 24
28 31 33 35 34 33 31 29 29 27 25 26 28 25 27 28 27 32 32 32 30 30 30 29 29 27 26 26 25 25 25 26 27 27 28 28 27 26 26 26 25 25 25 25 25 25 23 23 23
33 35 35 36 36 34 33 29 28 28 27 28 27 28 28 28 28 29 32 32 30 28 29 29 29 28 27 26 26 25 25 26 27 28 28 28 27 27 26 25 25 25 25 25 24 24 23 22 21
35 37 38 37 34 32 33 29 28 30 29 31 33 29 31 27 27 27 29 30 31 28 28 29 28 28 27 26 26 26 25 25 27 27 28 27 27 26 26 26 25 25 26 24 24 23 22 22 21
36 38 37 37 33 31 33 29 31 29 30 30 33 34 32 32 30 27 28 30 32 28 28 29 28 27 26 26 26 26 26 26 27 27 27 27 26 26 27 24 24 24 24 24 23 23 22 21 20
39 37 35 34 29 27 32 31 31 29 32 33 33 34 34 34 32 28 27 27 31 29 28 26 27 27 26 27 26 26 26 25 25 25 25 25 25 24 23 23 23 23 22 22 21 21 20 20 20
36 33 32 28 29 27 33 32 30 33 34 34 34 34 33 34 32 30 28 29 25 25 26 25 25 25 26 26 25 25 24 25 25 23 22 22 21 20 20 20 21 21 21 21 21 21 20 19 19
35 35 30 32 30 32 35 32 32 34 34 34 34 33 33 33 31 30 31 25 25 24 26 26 24 25 24 24 24 24 24 23 22 20 21 20 20 21 20 19 20 21 21 20 19 19 19 19 19
36 32 35 33 34 32 34 33 35 34 34 35 35 33 32 32 31 30 28 25 25 24 24 24 23 26 24 23 23 23 22 21 19 20 23 23 22 20 18 19 19 19 19 19 19 18 18 19 19
37 37 32 30 32 33 32 33 31 34 33 34 34 31 31 30 30 30 28 26 25 26 27 26 25 25 25 23 23 23 22 21 20 21 23 21 18 19 17 18 18 18 18 18 18 18 18 18 19
35 34 33 32 31 31 30 31 31 33 34 34 30 30 29 28 28 27 26 28 28 27 26 24 25 23 23 21 22 21 19 21 20 22 23 21 20 18 18 18 18 18 18 18 18 18 18 18 19
38 37 35 28 31 30 29 30 35 33 34 31 30 30 27 27 26 25 25 26 25 24 23 22 22 22 22 22 20 20 19 19 19 21 20 22 19 19 19 18 17 17 17 17 17 18 18 18 19